AFR600 TFFF-SOCA

Flight info

Callsign AFR600
Flight time N/A
Altitude 37000
Route BORU2R BORUS A555 BGI UA555 TRAPP UM786 KALEP KALE1U
Aircraft A343/H-SDE2E3FGHIJ4J5M1RWXY/LB1D1

Departure

Time N/A
Airport Martinique Aimé Césaire International Airport (TFFF)

Arrival

Time 2026-04-24 19:34
Airport Cayenne – Félix Eboué Airport (SOCA)
Time Latitude Longitude Altitude Speed Heading
2026-04-24 17:11 14.59435 -60.99971 24 ft 0 kts
2026-04-24 18:54 7.70916 -55.02101 36938 ft 435 kts 144°
2026-04-24 18:55 7.63507 -54.96897 36938 ft 434 kts 145°
2026-04-24 18:56 7.58556 -54.93421 36936 ft 433 kts 145°
2026-04-24 18:56 7.53611 -54.89950 36937 ft 434 kts 145°
2026-04-24 18:57 7.48660 -54.86476 36933 ft 434 kts 145°
2026-04-24 18:57 7.43705 -54.83000 36930 ft 433 kts 144°
2026-04-24 18:58 7.38756 -54.79530 36938 ft 432 kts 145°
2026-04-24 18:58 7.33864 -54.76100 36937 ft 431 kts 145°
2026-04-24 18:59 7.28934 -54.72644 36926 ft 432 kts 145°
2026-04-24 18:59 7.23991 -54.69181 36934 ft 432 kts 145°
2026-04-24 19:00 7.19053 -54.65723 36929 ft 433 kts 145°
2026-04-24 19:00 7.14094 -54.62251 36937 ft 432 kts 145°
2026-04-24 19:01 7.09190 -54.58819 36932 ft 433 kts 144°
2026-04-24 19:01 7.04229 -54.55356 36934 ft 434 kts 144°
2026-04-24 19:02 7.00083 -54.52450 36934 ft 434 kts 144°
2026-04-24 19:02 6.94325 -54.48418 36929 ft 434 kts 144°
2026-04-24 19:03 6.89343 -54.44931 36930 ft 436 kts 144°
2026-04-24 19:03 6.84356 -54.41444 36934 ft 437 kts 144°
2026-04-24 19:04 6.79367 -54.37955 36931 ft 437 kts 144°
2026-04-24 19:04 6.74395 -54.34480 36934 ft 438 kts 144°
2026-04-24 19:05 6.69390 -54.30983 36934 ft 438 kts 144°
2026-04-24 19:05 6.64385 -54.27487 36934 ft 438 kts 144°
2026-04-24 19:06 6.60224 -54.24581 36935 ft 438 kts 144°
2026-04-24 19:06 6.55211 -54.21081 36936 ft 438 kts 144°
2026-04-24 19:07 6.49388 -54.17017 36934 ft 438 kts 144°
2026-04-24 19:07 6.45200 -54.14095 36932 ft 438 kts 144°
2026-04-24 19:08 6.40220 -54.10620 36929 ft 438 kts 144°
2026-04-24 19:08 6.35217 -54.07131 36932 ft 438 kts 144°
2026-04-24 19:09 6.30209 -54.03639 36934 ft 438 kts 144°
2026-04-24 19:09 6.25200 -54.00146 36932 ft 438 kts 144°
2026-04-24 19:10 6.20311 -53.96490 36897 ft 438 kts 142°
2026-04-24 19:10 6.17892 -53.94605 36658 ft 443 kts 142°
2026-04-24 19:10 6.15472 -53.92730 36407 ft 447 kts 142°
2026-04-24 19:10 6.13001 -53.90826 36158 ft 448 kts 142°
2026-04-24 19:11 6.10518 -53.88917 35919 ft 450 kts 142°
2026-04-24 19:11 6.08024 -53.87002 35671 ft 452 kts 142°
2026-04-24 19:11 6.05510 -53.85075 35443 ft 453 kts 142°
2026-04-24 19:11 6.03001 -53.83152 35219 ft 454 kts 142°
2026-04-24 19:12 6.00483 -53.81223 34983 ft 455 kts 142°
2026-04-24 19:12 5.97966 -53.79296 34494 ft 455 kts 142°
2026-04-24 19:12 5.95433 -53.77356 33796 ft 458 kts 142°
2026-04-24 19:12 5.92896 -53.75413 33006 ft 461 kts 142°
2026-04-24 19:13 5.91200 -53.74115 32496 ft 463 kts 142°
2026-04-24 19:13 5.87769 -53.71489 31545 ft 465 kts 142°
2026-04-24 19:13 5.85207 -53.69528 31000 ft 462 kts 142°
2026-04-24 19:13 5.82689 -53.67601 30457 ft 460 kts 142°
2026-04-24 19:14 5.80144 -53.65654 29893 ft 459 kts 142°
2026-04-24 19:14 5.77610 -53.63716 29265 ft 456 kts 142°
2026-04-24 19:14 5.75086 -53.61786 28707 ft 453 kts 142°
2026-04-24 19:14 5.72596 -53.59882 28157 ft 450 kts 142°
2026-04-24 19:15 5.70108 -53.57978 27597 ft 447 kts 141°
2026-04-24 19:15 5.67633 -53.56086 27048 ft 445 kts 141°
2026-04-24 19:15 5.65177 -53.54208 26476 ft 443 kts 141°
2026-04-24 19:15 5.62729 -53.52337 25923 ft 441 kts 141°
2026-04-24 19:16 5.57855 -53.48606 24793 ft 439 kts 141°
2026-04-24 19:16 5.55432 -53.46754 24228 ft 438 kts 141°
2026-04-24 19:16 5.53029 -53.44920 23651 ft 438 kts 141°
2026-04-24 19:17 5.50583 -53.43052 23015 ft 437 kts 141°
2026-04-24 19:17 5.48173 -53.41211 22431 ft 434 kts 142°
2026-04-24 19:17 5.45812 -53.39407 21868 ft 431 kts 142°
2026-04-24 19:17 5.43434 -53.37592 21293 ft 428 kts 142°
2026-04-24 19:18 5.41076 -53.35790 20761 ft 424 kts 142°
2026-04-24 19:18 5.38726 -53.33995 20192 ft 422 kts 142°
2026-04-24 19:18 5.36404 -53.32222 19640 ft 420 kts 142°
2026-04-24 19:18 5.34090 -53.30455 19093 ft 417 kts 142°
2026-04-24 19:19 5.31781 -53.28692 18537 ft 416 kts 143°
2026-04-24 19:19 5.29476 -53.26933 17949 ft 414 kts 143°
2026-04-24 19:19 5.27199 -53.25195 17348 ft 411 kts 143°
2026-04-24 19:19 5.24928 -53.23462 16811 ft 407 kts 142°
2026-04-24 19:20 5.22680 -53.21746 16265 ft 404 kts 142°
2026-04-24 19:20 5.20452 -53.20048 15742 ft 401 kts 142°
2026-04-24 19:20 5.18247 -53.18331 15195 ft 398 kts 139°
2026-04-24 19:20 5.16388 -53.16304 14654 ft 394 kts 126°
2026-04-24 19:21 5.14810 -53.14111 14140 ft 391 kts 124°
2026-04-24 19:21 5.13254 -53.11883 13604 ft 388 kts 124°
2026-04-24 19:21 5.11702 -53.09664 13074 ft 385 kts 124°
2026-04-24 19:21 5.10164 -53.07471 12543 ft 382 kts 124°
2026-04-24 19:22 5.09155 -53.06037 12205 ft 379 kts 124°
2026-04-24 19:22 5.07132 -53.03164 11524 ft 375 kts 124°
2026-04-24 19:22 5.05635 -53.01041 11034 ft 372 kts 124°
2026-04-24 19:22 5.04164 -52.98956 10795 ft 360 kts 124°
2026-04-24 19:23 5.02735 -52.96932 10599 ft 349 kts 124°
2026-04-24 19:23 5.01358 -52.94982 10424 ft 338 kts 124°
2026-04-24 19:23 5.00019 -52.93086 10264 ft 328 kts 124°
2026-04-24 19:23 4.98720 -52.91245 10120 ft 318 kts 123°
2026-04-24 19:24 4.97457 -52.89456 9977 ft 310 kts 124°
2026-04-24 19:24 4.96230 -52.87717 9823 ft 301 kts 124°
2026-04-24 19:24 4.95026 -52.86012 9548 ft 297 kts 123°
2026-04-24 19:24 4.93842 -52.84334 9259 ft 294 kts 124°
2026-04-24 19:25 4.92673 -52.82680 8968 ft 292 kts 123°
2026-04-24 19:25 4.91508 -52.81029 8680 ft 289 kts 123°
2026-04-24 19:25 4.90348 -52.79386 8351 ft 288 kts 124°
2026-04-24 19:25 4.89195 -52.77755 8045 ft 286 kts 123°
2026-04-24 19:26 4.88049 -52.76132 7725 ft 284 kts 124°
2026-04-24 19:26 4.86910 -52.74521 7404 ft 282 kts 124°
2026-04-24 19:26 4.85780 -52.72923 7103 ft 280 kts 124°
2026-04-24 19:26 4.84657 -52.71334 6806 ft 279 kts 124°
2026-04-24 19:27 4.83538 -52.69750 6478 ft 278 kts 124°
2026-04-24 19:27 4.82421 -52.68170 6131 ft 277 kts 123°
2026-04-24 19:27 4.81308 -52.66595 5800 ft 275 kts 123°
2026-04-24 19:27 4.80207 -52.65039 5469 ft 274 kts 124°
2026-04-24 19:28 4.79111 -52.63488 5139 ft 272 kts 123°
2026-04-24 19:28 4.78021 -52.61946 4844 ft 269 kts 123°
2026-04-24 19:28 4.76950 -52.60431 4631 ft 263 kts 123°
2026-04-24 19:28 4.75903 -52.58952 4463 ft 254 kts 123°
2026-04-24 19:29 4.73999 -52.56149 3749 ft 234 kts 111°
2026-04-24 19:29 4.73813 -52.54580 3158 ft 229 kts 84°
2026-04-24 19:29 4.74209 -52.53026 2599 ft 228 kts 67°
2026-04-24 19:30 4.74877 -52.51618 2268 ft 224 kts 64°
2026-04-24 19:30 4.75536 -52.50231 2133 ft 217 kts 65°
2026-04-24 19:30 4.76150 -52.48900 2019 ft 200 kts 66°
2026-04-24 19:30 4.76689 -52.47720 1992 ft 173 kts 66°
2026-04-24 19:31 4.77155 -52.46694 1913 ft 153 kts 66°
2026-04-24 19:31 4.77585 -52.45746 1759 ft 149 kts 65°
2026-04-24 19:31 4.78015 -52.44806 1559 ft 146 kts 65°
2026-04-24 19:31 4.78430 -52.43904 1360 ft 139 kts 65°
2026-04-24 19:32 4.78828 -52.43040 1191 ft 134 kts 66°
2026-04-24 19:32 4.79209 -52.42210 975 ft 131 kts 66°
2026-04-24 19:32 4.79620 -52.41323 840 ft 148 kts 65°
2026-04-24 19:32 4.80034 -52.40387 659 ft 146 kts 65°
2026-04-24 19:33 4.80450 -52.39474 500 ft 142 kts 67°
2026-04-24 19:33 4.80866 -52.38583 321 ft 140 kts 65°
2026-04-24 19:33 4.81271 -52.37705 137 ft 139 kts 64°
2026-04-24 19:33 4.81671 -52.36838 32 ft 127 kts 65°
2026-04-24 19:34 4.81938 -52.36247 33 ft 60 kts 65°
2026-04-24 19:34 4.82054 -52.35991 33 ft 14 kts 65°
2026-04-24 19:34 4.82073 -52.35949 33 ft 4 kts 66°
2026-04-24 19:34 4.82083 -52.35936 33 ft 0 kts 37°
2026-04-24 19:35 4.82085 -52.35935 33 ft 0 kts 33°
2026-04-24 19:35 4.82093 -52.35934 33 ft 2 kts
2026-04-24 19:35 4.82114 -52.35956 33 ft 9 kts 313°
2026-04-24 19:36 4.82160 -52.36017 12 ft 9 kts 305°
2026-04-24 19:36 4.82187 -52.36064 33 ft 7 kts 295°
2026-04-24 19:36 4.82190 -52.36085 33 ft 0 kts 266°
2026-04-24 19:36 4.82190 -52.36090 33 ft 3 kts 263°
2026-04-24 19:37 4.82181 -52.36119 33 ft 6 kts 252°
2026-04-24 19:37 4.82161 -52.36169 32 ft 10 kts 246°
2026-04-24 19:37 4.82134 -52.36219 33 ft 8 kts 237°
2026-04-24 19:37 4.82116 -52.36247 33 ft 3 kts 237°
2026-04-24 19:38 4.82111 -52.36255 33 ft 2 kts 238°
2026-04-24 19:38 4.82095 -52.36289 33 ft 8 kts 246°
2026-04-24 19:38 4.82084 -52.36318 33 ft 0 kts 253°
2026-04-24 19:38 4.82088 -52.36326 33 ft 3 kts 292°
2026-04-24 19:39 4.82092 -52.36332 33 ft 0 kts 304°
2026-04-24 19:39 4.82100 -52.36337 33 ft 1 kts 321°
2026-04-24 19:39 4.82102 -52.36339 33 ft 2 kts 321°
2026-04-24 19:39 4.82120 -52.36350 33 ft 2 kts 330°
2026-04-24 19:40 4.82126 -52.36353 33 ft 2 kts 331°
2026-04-24 19:40 4.82139 -52.36360 33 ft 3 kts 333°
2026-04-24 19:40 4.82142 -52.36362 33 ft 0 kts 334°